Year,Month,Day,Hour,Minute,Value (Times are PST for windgust in km/hr)
2016,03,12,00,22,1.60
2016,03,12,00,23,1.60
2016,03,12,00,24,6.40
2016,03,12,00,25,4.80
2016,03,12,00,26,1.60
2016,03,12,00,29,1.60
2016,03,12,01,10,1.60
2016,03,12,01,11,3.20
2016,03,12,01,15,3.20
2016,03,12,01,16,1.60
2016,03,12,01,19,1.60
2016,03,12,01,33,1.60
2016,03,12,01,50,1.60
2016,03,12,02,13,1.60
2016,03,12,02,19,1.60
2016,03,12,02,56,1.60
2016,03,12,03,00,1.60
2016,03,12,03,07,1.60
2016,03,12,03,59,1.60
2016,03,12,04,23,1.60
2016,03,12,04,24,3.20
2016,03,12,04,25,1.60
2016,03,12,04,28,1.60
2016,03,12,04,57,1.60
2016,03,12,05,19,1.60
2016,03,12,05,21,1.60
2016,03,12,05,22,3.20
2016,03,12,05,23,3.20
2016,03,12,05,31,1.60
2016,03,12,05,35,1.60
2016,03,12,05,36,1.60
2016,03,12,06,05,1.60
2016,03,12,06,43,4.80
2016,03,12,06,44,3.20
2016,03,12,06,46,3.20
2016,03,12,06,47,3.20
2016,03,12,06,48,3.20
2016,03,12,06,53,1.60
2016,03,12,07,01,6.40
2016,03,12,07,02,4.80
2016,03,12,07,03,3.20
2016,03,12,07,04,9.60
2016,03,12,07,05,19.30
2016,03,12,07,06,11.30
2016,03,12,07,07,16.10
2016,03,12,07,08,16.10
2016,03,12,07,09,4.80
2016,03,12,07,10,3.20
2016,03,12,07,14,1.60
2016,03,12,07,15,1.60
2016,03,12,07,19,1.60
2016,03,12,07,22,16.10
2016,03,12,07,23,14.50
2016,03,12,07,24,8.10
2016,03,12,07,25,9.60
2016,03,12,07,26,14.50
2016,03,12,07,27,16.10
2016,03,12,07,28,24.20
2016,03,12,07,29,16.10
2016,03,12,07,30,11.30
2016,03,12,07,31,20.90
2016,03,12,07,32,16.10
2016,03,12,07,33,17.70
2016,03,12,07,34,19.30
2016,03,12,07,35,11.30
2016,03,12,07,36,19.30
2016,03,12,07,37,22.50
2016,03,12,07,38,20.90
2016,03,12,07,39,11.30
2016,03,12,07,40,9.60
2016,03,12,07,41,9.60
2016,03,12,07,42,4.80
2016,03,12,07,43,8.10
2016,03,12,07,44,3.20
2016,03,12,07,45,6.40
2016,03,12,07,46,17.70
2016,03,12,07,47,20.90
2016,03,12,07,48,4.80
2016,03,12,07,49,12.90
2016,03,12,07,50,8.10
2016,03,12,07,51,4.80
2016,03,12,07,52,8.10
2016,03,12,07,53,14.50
2016,03,12,07,54,8.10
2016,03,12,07,56,17.70
2016,03,12,07,57,8.10
2016,03,12,07,58,16.10
2016,03,12,07,59,16.10
2016,03,12,08,00,12.90
2016,03,12,08,01,8.10
2016,03,12,08,02,8.10
2016,03,12,08,03,14.50
2016,03,12,08,04,8.10
2016,03,12,08,05,12.90
2016,03,12,08,06,11.30
2016,03,12,08,07,8.10
2016,03,12,08,08,3.20
2016,03,12,08,09,8.10
2016,03,12,08,10,25.70
2016,03,12,08,11,9.60
2016,03,12,08,12,19.30
2016,03,12,08,13,8.10
2016,03,12,08,14,3.20
2016,03,12,08,15,17.70
2016,03,12,08,16,16.10
2016,03,12,08,17,4.80
2016,03,12,08,18,11.30
2016,03,12,08,19,12.90
2016,03,12,08,20,14.50
2016,03,12,08,21,9.60
2016,03,12,08,22,3.20
2016,03,12,08,23,1.60
2016,03,12,08,27,6.40
2016,03,12,08,28,6.40
2016,03,12,08,33,4.80
2016,03,12,08,34,4.80
2016,03,12,08,35,6.40
2016,03,12,08,36,3.20
2016,03,12,08,37,1.60
2016,03,12,08,41,3.20
2016,03,12,08,43,6.40
2016,03,12,08,44,9.60
2016,03,12,08,45,14.50
2016,03,12,08,46,3.20
2016,03,12,08,47,4.80
2016,03,12,08,48,1.60
2016,03,12,08,49,6.40
2016,03,12,08,50,12.90
2016,03,12,08,51,4.80
2016,03,12,08,52,9.60
2016,03,12,08,53,12.90
2016,03,12,08,54,8.10
2016,03,12,08,55,9.60
2016,03,12,08,56,8.10
2016,03,12,08,57,3.20
2016,03,12,08,58,8.10
2016,03,12,08,59,17.70
2016,03,12,09,00,9.60
2016,03,12,09,01,6.40
2016,03,12,09,02,1.60
2016,03,12,09,03,6.40
2016,03,12,09,04,6.40
2016,03,12,09,05,9.60
2016,03,12,09,06,8.10
2016,03,12,09,07,9.60
2016,03,12,09,08,14.50
2016,03,12,09,09,9.60
2016,03,12,09,10,11.30
2016,03,12,09,11,11.30
2016,03,12,09,12,19.30
2016,03,12,09,13,9.60
2016,03,12,09,14,11.30
2016,03,12,09,15,11.30
2016,03,12,09,16,11.30
2016,03,12,09,17,9.60
2016,03,12,09,18,14.50
2016,03,12,09,19,3.20
2016,03,12,09,20,17.70
2016,03,12,09,21,11.30
2016,03,12,09,22,4.80
2016,03,12,09,23,11.30
2016,03,12,09,24,16.10
2016,03,12,09,25,9.60
2016,03,12,09,26,4.80
2016,03,12,09,27,11.30
2016,03,12,09,28,22.50
2016,03,12,09,29,20.90
2016,03,12,09,30,11.30
2016,03,12,09,31,8.10
2016,03,12,09,32,24.20
2016,03,12,09,33,20.90
2016,03,12,09,34,20.90
2016,03,12,09,35,4.80
2016,03,12,09,36,1.60
2016,03,12,09,37,8.10
2016,03,12,09,38,11.30
2016,03,12,09,39,9.60
2016,03,12,09,40,8.10
2016,03,12,09,41,19.30
2016,03,12,09,42,14.50
2016,03,12,09,43,16.10
2016,03,12,09,44,19.30
2016,03,12,09,45,16.10
2016,03,12,09,46,14.50
2016,03,12,09,47,19.30
2016,03,12,09,48,20.90
2016,03,12,09,49,8.10
2016,03,12,09,50,16.10
2016,03,12,09,51,22.50
2016,03,12,09,52,19.30
2016,03,12,09,53,19.30
2016,03,12,09,54,3.20
2016,03,12,09,55,11.30
2016,03,12,09,56,9.60
2016,03,12,09,57,3.20
2016,03,12,09,58,6.40
2016,03,12,09,59,14.50
2016,03,12,10,00,12.90
2016,03,12,10,01,8.10
2016,03,12,10,02,17.70
2016,03,12,10,03,11.30
2016,03,12,10,04,8.10
2016,03,12,10,05,8.10
2016,03,12,10,06,6.40
2016,03,12,10,07,8.10
2016,03,12,10,08,6.40
2016,03,12,10,09,6.40
2016,03,12,10,10,9.60
2016,03,12,10,11,9.60
2016,03,12,10,12,1.60
2016,03,12,10,16,6.40
2016,03,12,10,18,17.70
2016,03,12,10,19,29.00
2016,03,12,10,20,25.70
2016,03,12,10,21,20.90
2016,03,12,10,22,11.30
2016,03,12,10,23,3.20
2016,03,12,10,24,1.60
2016,03,12,10,25,1.60
2016,03,12,10,26,9.60
2016,03,12,10,27,11.30
2016,03,12,10,28,19.30
2016,03,12,10,29,14.50
2016,03,12,10,30,11.30
2016,03,12,10,31,14.50
2016,03,12,10,32,14.50
2016,03,12,10,33,19.30
2016,03,12,10,34,17.70
2016,03,12,10,35,16.10
2016,03,12,10,36,20.90
2016,03,12,10,37,16.10
2016,03,12,10,38,11.30
2016,03,12,10,39,19.30
2016,03,12,10,40,20.90
2016,03,12,10,41,14.50
2016,03,12,10,42,14.50
2016,03,12,10,43,16.10
2016,03,12,10,44,24.20
2016,03,12,10,45,22.50
2016,03,12,10,46,19.30
2016,03,12,10,47,17.70
2016,03,12,10,48,16.10
2016,03,12,10,49,9.60
2016,03,12,10,50,29.00
2016,03,12,10,51,22.50
2016,03,12,10,52,19.30
2016,03,12,10,53,14.50
2016,03,12,10,54,16.10
2016,03,12,10,55,1.60
2016,03,12,10,56,6.40
2016,03,12,10,57,4.80
2016,03,12,10,58,6.40
2016,03,12,10,59,8.10
2016,03,12,11,00,11.30
2016,03,12,11,01,9.60
2016,03,12,11,02,9.60
2016,03,12,11,03,6.40
2016,03,12,11,04,20.90
2016,03,12,11,05,19.30
2016,03,12,11,06,14.50
2016,03,12,11,07,17.70
2016,03,12,11,08,14.50
2016,03,12,11,09,8.10
2016,03,12,11,10,11.30
2016,03,12,11,11,11.30
2016,03,12,11,12,11.30
2016,03,12,11,13,4.80
2016,03,12,11,14,16.10
2016,03,12,11,15,4.80
2016,03,12,11,16,9.60
2016,03,12,11,17,14.50
2016,03,12,11,18,11.30
2016,03,12,11,19,16.10
2016,03,12,11,20,14.50
2016,03,12,11,21,16.10
2016,03,12,11,22,14.50
2016,03,12,11,23,17.70
2016,03,12,11,24,16.10
2016,03,12,11,25,19.30
2016,03,12,11,26,14.50
2016,03,12,11,27,14.50
2016,03,12,11,28,12.90
2016,03,12,11,29,11.30
2016,03,12,11,30,4.80
2016,03,12,11,31,3.20
2016,03,12,11,32,9.60
2016,03,12,11,33,11.30
2016,03,12,11,34,9.60
2016,03,12,11,35,3.20
2016,03,12,11,36,11.30
2016,03,12,11,37,11.30
2016,03,12,11,38,4.80
2016,03,12,11,39,6.40
2016,03,12,11,40,8.10
2016,03,12,11,41,9.60
2016,03,12,11,42,16.10
2016,03,12,11,43,17.70
2016,03,12,11,44,14.50
2016,03,12,11,45,11.30
2016,03,12,11,46,11.30
2016,03,12,11,47,16.10
2016,03,12,11,48,9.60
2016,03,12,11,49,11.30
2016,03,12,11,50,8.10
2016,03,12,11,51,9.60
2016,03,12,11,52,11.30
2016,03,12,11,53,16.10
2016,03,12,11,54,11.30
2016,03,12,11,55,11.30
2016,03,12,11,56,11.30
2016,03,12,11,57,8.10
2016,03,12,11,58,12.90
2016,03,12,11,59,8.10
2016,03,12,12,00,9.60
2016,03,12,12,01,9.60
2016,03,12,12,02,4.80
2016,03,12,12,03,8.10
2016,03,12,12,04,8.10
2016,03,12,12,05,8.10
2016,03,12,12,06,8.10
2016,03,12,12,07,16.10
2016,03,12,12,08,9.60
2016,03,12,12,09,9.60
2016,03,12,12,10,8.10
2016,03,12,12,11,6.40
2016,03,12,12,12,8.10
2016,03,12,12,13,9.60
2016,03,12,12,14,14.50
2016,03,12,12,15,8.10
2016,03,12,12,16,6.40
2016,03,12,12,17,4.80
2016,03,12,12,18,9.60
2016,03,12,12,19,6.40
2016,03,12,12,20,3.20
2016,03,12,12,21,4.80
2016,03,12,12,22,6.40
2016,03,12,12,23,8.10
2016,03,12,12,24,6.40
2016,03,12,12,25,4.80
2016,03,12,12,26,6.40
2016,03,12,12,27,1.60
2016,03,12,12,28,4.80
2016,03,12,12,29,8.10
2016,03,12,12,30,8.10
2016,03,12,12,31,1.60
2016,03,12,12,33,3.20
2016,03,12,12,36,1.60
2016,03,12,12,37,6.40
2016,03,12,12,38,3.20
2016,03,12,12,39,1.60
2016,03,12,12,40,3.20
2016,03,12,12,41,6.40
2016,03,12,12,42,9.60
2016,03,12,12,43,11.30
2016,03,12,12,44,9.60
2016,03,12,12,45,6.40
2016,03,12,12,46,1.60
2016,03,12,12,50,1.60
2016,03,12,12,51,6.40
2016,03,12,12,52,6.40
2016,03,12,12,53,3.20
2016,03,12,12,54,9.60
2016,03,12,12,55,8.10
2016,03,12,12,56,1.60
2016,03,12,12,57,1.60
2016,03,12,12,58,9.60
2016,03,12,12,59,4.80
2016,03,12,13,00,6.40
2016,03,12,13,01,4.80
2016,03,12,13,02,3.20
2016,03,12,13,03,4.80
2016,03,12,13,04,4.80
2016,03,12,13,07,1.60
2016,03,12,13,09,8.10
2016,03,12,13,10,8.10
2016,03,12,13,11,1.60
2016,03,12,13,13,1.60
2016,03,12,13,16,1.60
2016,03,12,13,17,1.60
2016,03,12,13,18,1.60
2016,03,12,13,21,6.40
2016,03,12,13,22,4.80
2016,03,12,13,23,3.20
2016,03,12,13,24,3.20
2016,03,12,13,25,3.20
2016,03,12,13,27,8.10
2016,03,12,13,28,6.40
2016,03,12,13,29,9.60
2016,03,12,13,30,4.80
2016,03,12,13,31,8.10
2016,03,12,13,32,14.50
2016,03,12,13,33,8.10
2016,03,12,13,34,16.10
2016,03,12,13,35,14.50
2016,03,12,13,36,12.90
2016,03,12,13,37,11.30
2016,03,12,13,38,8.10
2016,03,12,13,39,9.60
2016,03,12,13,40,6.40
2016,03,12,13,41,6.40
2016,03,12,13,42,6.40
2016,03,12,13,43,1.60
2016,03,12,13,44,9.60
2016,03,12,13,45,9.60
2016,03,12,13,46,17.70
2016,03,12,13,47,11.30
2016,03,12,13,48,14.50
2016,03,12,13,49,9.60
2016,03,12,13,50,9.60
2016,03,12,13,51,8.10
2016,03,12,13,52,6.40
2016,03,12,13,53,19.30
2016,03,12,13,54,19.30
2016,03,12,13,55,20.90
2016,03,12,13,56,9.60
2016,03,12,13,57,9.60
2016,03,12,13,58,14.50
2016,03,12,13,59,8.10
2016,03,12,14,00,11.30
2016,03,12,14,01,11.30
2016,03,12,14,02,3.20
2016,03,12,14,03,9.60
2016,03,12,14,04,9.60
2016,03,12,14,05,4.80
2016,03,12,14,06,8.10
2016,03,12,14,07,14.50
2016,03,12,14,08,8.10
2016,03,12,14,09,6.40
2016,03,12,14,10,16.10
2016,03,12,14,11,6.40
2016,03,12,14,12,8.10
2016,03,12,14,13,9.60
2016,03,12,14,14,14.50
2016,03,12,14,15,4.80
2016,03,12,14,16,16.10
2016,03,12,14,17,16.10
2016,03,12,14,18,8.10
2016,03,12,14,19,4.80
2016,03,12,14,20,17.70
2016,03,12,14,21,14.50
2016,03,12,14,22,8.10
2016,03,12,14,23,4.80
2016,03,12,14,24,1.60
2016,03,12,14,25,8.10
2016,03,12,14,26,3.20
2016,03,12,14,27,14.50
2016,03,12,14,28,11.30
2016,03,12,14,29,3.20
2016,03,12,14,30,9.60
2016,03,12,14,31,16.10
2016,03,12,14,32,6.40
2016,03,12,14,33,8.10
2016,03,12,14,34,8.10
2016,03,12,14,35,9.60
2016,03,12,14,36,1.60
2016,03,12,14,37,8.10
2016,03,12,14,38,4.80
2016,03,12,14,39,6.40
2016,03,12,14,40,6.40
2016,03,12,14,41,8.10
2016,03,12,14,42,11.30
2016,03,12,14,43,9.60
2016,03,12,14,44,6.40
2016,03,12,14,45,6.40
2016,03,12,14,46,3.20
2016,03,12,14,47,3.20
2016,03,12,14,48,11.30
2016,03,12,14,49,12.90
2016,03,12,14,50,6.40
2016,03,12,14,52,11.30
2016,03,12,14,53,9.60
2016,03,12,14,54,11.30
2016,03,12,14,55,9.60
2016,03,12,14,56,9.60
2016,03,12,14,57,9.60
2016,03,12,14,58,14.50
2016,03,12,14,59,11.30
2016,03,12,15,00,9.60
2016,03,12,15,01,8.10
2016,03,12,15,02,6.40
2016,03,12,15,03,6.40
2016,03,12,15,05,1.60
2016,03,12,15,06,1.60
2016,03,12,15,07,9.60
2016,03,12,15,08,9.60
2016,03,12,15,09,6.40
2016,03,12,15,10,14.50
2016,03,12,15,11,8.10
2016,03,12,15,12,8.10
2016,03,12,15,13,8.10
2016,03,12,15,14,6.40
2016,03,12,15,15,9.60
2016,03,12,15,16,6.40
2016,03,12,15,17,4.80
2016,03,12,15,18,4.80
2016,03,12,15,19,6.40
2016,03,12,15,20,14.50
2016,03,12,15,22,3.20
2016,03,12,15,23,6.40
2016,03,12,15,24,1.60
2016,03,12,15,25,6.40
2016,03,12,15,26,11.30
2016,03,12,15,27,6.40
2016,03,12,15,28,9.60
2016,03,12,15,29,9.60
2016,03,12,15,30,9.60
2016,03,12,15,31,14.50
2016,03,12,15,32,11.30
2016,03,12,15,33,14.50
2016,03,12,15,34,8.10
2016,03,12,15,35,8.10
2016,03,12,15,36,1.60
2016,03,12,15,37,4.80
2016,03,12,15,38,1.60
2016,03,12,15,40,9.60
2016,03,12,15,41,8.10
2016,03,12,15,42,6.40
2016,03,12,15,43,3.20
2016,03,12,15,44,19.30
2016,03,12,15,45,11.30
2016,03,12,15,46,20.90
2016,03,12,15,47,8.10
2016,03,12,15,48,1.60
2016,03,12,15,49,11.30
2016,03,12,15,50,8.10
2016,03,12,15,51,6.40
2016,03,12,15,52,4.80
2016,03,12,15,55,1.60
2016,03,12,15,57,4.80
2016,03,12,15,58,4.80
2016,03,12,16,06,1.60
2016,03,12,16,09,1.60
2016,03,12,16,13,3.20
2016,03,12,16,14,4.80
2016,03,12,16,18,1.60
2016,03,12,16,27,1.60
2016,03,12,16,30,1.60
2016,03,12,16,32,4.80
2016,03,12,16,33,1.60
2016,03,12,16,34,6.40
2016,03,12,16,35,8.10
2016,03,12,16,36,3.20
2016,03,12,16,37,11.30
2016,03,12,16,38,20.90
2016,03,12,16,39,16.10
2016,03,12,16,40,6.40
2016,03,12,16,41,9.60
2016,03,12,16,42,11.30
2016,03,12,16,43,11.30
2016,03,12,16,44,9.60
2016,03,12,16,45,1.60
2016,03,12,16,51,9.60
2016,03,12,16,52,3.20
2016,03,12,16,57,3.20
2016,03,12,17,02,1.60
2016,03,12,17,04,1.60
2016,03,12,17,06,9.60
2016,03,12,17,07,9.60
2016,03,12,17,11,1.60
2016,03,12,17,12,1.60
2016,03,12,17,13,12.90
2016,03,12,17,14,14.50
2016,03,12,17,15,9.60
2016,03,12,17,16,4.80
2016,03,12,17,24,1.60
2016,03,12,17,29,1.60
2016,03,12,17,50,1.60
2016,03,12,17,53,1.60
2016,03,12,18,05,1.60
2016,03,12,18,22,1.60
2016,03,12,18,30,1.60
2016,03,12,18,37,1.60
2016,03,12,18,40,4.80
2016,03,12,18,41,4.80
2016,03,12,18,48,4.80
2016,03,12,18,49,1.60
2016,03,12,18,58,1.60
2016,03,12,19,05,1.60
2016,03,12,19,12,1.60
2016,03,12,19,40,1.60
2016,03,12,19,43,1.60
2016,03,12,19,44,1.60
2016,03,12,20,11,1.60
2016,03,12,20,41,1.60
2016,03,12,20,57,1.60
2016,03,12,22,01,1.60
2016,03,12,22,13,1.60
2016,03,12,22,15,1.60
2016,03,12,22,40,3.20
2016,03,12,22,41,4.80
2016,03,12,22,42,6.40
2016,03,12,22,43,4.80
2016,03,12,22,44,4.80
2016,03,12,23,08,1.60
2016,03,12,23,13,3.20
2016,03,12,23,22,1.60
2016,03,12,23,29,3.20
2016,03,12,23,33,3.20
2016,03,12,23,40,1.60
2016,03,12,23,41,1.60
2016,03,12,23,42,1.60
2016,03,12,23,52,1.60
2016,03,12,23,53,4.80
